Weather History for Malaga, Spain

Change the Weather History Date:

Thursday, October 25, 2012

  Actual Average Record
Temperature  
Mean Temperature 62 °F -  
Max Temperature 64 °F 65 °F 80 °F (1998)
Min Temperature 59 °F 51 °F 51 °F (2000)
Degree Days  
Heating Degree Days 4    
Growing Degree Days 12 (Base 50)    
Moisture  
Dew Point 60 °F    
Average Humidity 96    
Maximum Humidity 100    
Minimum Humidity 85    
Precipitation  
Precipitation 1.50 in 0.14 in - ()
Sea Level Pressure  
Sea Level Pressure 29.80 in    
Wind  
Wind Speed 5 mph ()    
Max Wind Speed 16 mph    
Max Gust Speed 29 mph    
Visibility 5.2 miles    
Events Rain , Thunderstorm    
Averages and records for this station are not official NWS values.
T = Trace of Precipitation, MM = Missing Value Source: Averaged Metar Reports

Daily Weather History Graph

Daily Weather History Graph

Search for Another Location

Airport:

Trip Planner

Search our weather history database for the weather conditions in past years. The results will help you decide how hot, cold, wet, or windy it might be!

Date:

Astronomy

Oct. 25, 2012 Rise Set
Actual Time 8:34 AM CEST 7:28 PM CEST
Civil Twilight 8:08 AM CEST 7:54 PM CEST
Nautical Twilight 7:38 AM CEST 8:25 PM CEST
Astronomical Twilight 7:08 AM CEST 8:55 PM CEST
Moon 5:02 PM CEST (10/25) 4:23 AM CEST (10/25)
Length of Visible Light 11h 46m
Length of Day
10h 53m
Waxing Gibbous, 82% of the Moon is Illuminated
Oct 25
Waxing Gibbous
Oct 29
Full
Nov 7
Last Quarter
Nov 13
New
Nov 20
First Quarter

Hourly Weather History & Observations

Time (CEST) Temp. Dew Point Humidity Pressure Visibility Wind Dir Wind Speed Gust Speed Precip Events Conditions
12:00 AM 60.8 °F 59.0 °F 94% 29.92 in 4.3 mi WNW 6.9 mph - N/A Rain Rain Showers
12:30 AM 60.8 °F 59.0 °F 94% 29.92 in 4.3 mi WNW 8.1 mph - N/A Rain Rain Showers
1:00 AM 60.8 °F 59.0 °F 94% 29.92 in 6.2 mi Variable 1.2 mph - N/A Rain Rain Showers
1:15 AM 60.8 °F 59.0 °F 94% 29.92 in 6.2 mi Variable 1.2 mph - N/A   Mostly Cloudy
1:30 AM 60.8 °F 59.0 °F 94% 29.92 in 6.2 mi Variable 1.2 mph - N/A   Mostly Cloudy
2:00 AM 62 °F 59 °F 85% 29.91 in 16 mi 1.2 mph - - Rain Light Rain Showers
2:00 AM 60.8 °F 59.0 °F 94% 29.89 in 6.2 mi Variable 1.2 mph - N/A   Mostly Cloudy
2:30 AM 60.8 °F 59.0 °F 94% 29.89 in 6.2 mi SW 4.6 mph - N/A   Mostly Cloudy
3:00 AM 60.8 °F 59.0 °F 94% 29.89 in 6.2 mi Calm Calm - N/A   Mostly Cloudy
3:30 AM 60.8 °F 59.0 °F 94% 29.86 in 6.2 mi WNW 6.9 mph - N/A   Scattered Clouds
4:00 AM 59.0 °F 59.0 °F 100% 29.86 in 6.2 mi WNW 4.6 mph - N/A   Scattered Clouds
4:30 AM 59.0 °F 59.0 °F 100% 29.86 in 6.2 mi West 6.9 mph - N/A   Partly Cloudy
5:00 AM 59.0 °F 57.2 °F 94% 29.83 in 6.2 mi WNW 5.8 mph - N/A   Partly Cloudy
5:30 AM 59.0 °F 57.2 °F 94% 29.83 in 6.2 mi NW 3.5 mph - N/A   Partly Cloudy
6:00 AM 59.0 °F 57.2 °F 94% 29.83 in 6.2 mi WNW 6.9 mph - N/A   Partly Cloudy
6:30 AM 59.0 °F 57.2 °F 94% 29.80 in 6.2 mi WNW 5.8 mph - N/A   Partly Cloudy
7:00 AM 59.0 °F 57.2 °F 94% 29.80 in 6.2 mi WNW 8.1 mph - N/A   Partly Cloudy
7:30 AM 59.0 °F 57.2 °F 94% 29.77 in 6.2 mi WNW 5.8 mph - N/A   Scattered Clouds
8:00 AM 60 °F 58 °F 91% 29.80 in 12 mi WNW 6.9 mph - -   Overcast
8:00 AM 59.0 °F 59.0 °F 100% 29.80 in 6.2 mi WNW 6.9 mph - N/A   Mostly Cloudy
8:13 AM 59.0 °F 59.0 °F 100% 29.77 in 4.3 mi WNW 8.1 mph - N/A Rain Rain Showers
8:22 AM 59.0 °F 59.0 °F 100% 29.80 in 3.1 mi WNW 8.1 mph - N/A Rain Rain Showers
8:30 AM 59.0 °F 59.0 °F 100% 29.80 in 2.5 mi WNW 8.1 mph - N/A Rain Rain Showers
9:00 AM 59.0 °F 59.0 °F 100% 29.80 in 1.9 mi NW 2.3 mph - N/A Rain Rain Showers
9:30 AM 59.0 °F 59.0 °F 100% 29.80 in 2.5 mi Variable 1.2 mph - N/A Rain Light Rain
9:48 AM 59.0 °F 59.0 °F 100% 29.80 in 2.5 mi West 6.9 mph - N/A Rain Rain
10:00 AM 59.0 °F 59.0 °F 100% 29.80 in 2.5 mi Variable 2.3 mph - N/A Rain Rain
10:17 AM 59.0 °F 59.0 °F 100% 29.83 in 1.6 mi WNW 12.7 mph - N/A Rain Rain Showers
10:21 AM 59.0 °F 59.0 °F 100% 29.83 in 0.7 mi West 16.1 mph - N/A Rain Heavy Rain Showers
10:30 AM 59.0 °F 59.0 °F 100% 29.83 in 1.2 mi NNW 10.4 mph - N/A Rain Rain Showers
10:35 AM 59.0 °F 59.0 °F 100% 29.83 in 0.6 mi West 15.0 mph 26.5 mph N/A Rain Heavy Rain Showers
10:48 AM 59.0 °F 59.0 °F 100% 29.83 in 1.9 mi WNW 6.9 mph - N/A Rain Rain Showers
11:00 AM 59.0 °F 59.0 °F 100% 29.83 in 3.1 mi WNW 5.8 mph - N/A Rain Light Rain
11:30 AM 60.8 °F 59.0 °F 94% 29.83 in 6.2 mi WNW 5.8 mph - N/A   Mostly Cloudy
12:00 PM 60.8 °F 59.0 °F 94% 29.80 in 6.2 mi WNW 5.8 mph - N/A Rain Light Rain
12:10 PM 60.8 °F 59.0 °F 94% 29.80 in 2.5 mi West 5.8 mph - N/A Rain Rain
12:16 PM 60.8 °F 59.0 °F 94% 29.83 in 6.2 mi West 2.3 mph - N/A Rain Light Rain
12:30 PM 60.8 °F 59.0 °F 94% 29.83 in 6.2 mi South 2.3 mph - N/A   Mostly Cloudy
1:00 PM 60.8 °F 59.0 °F 94% 29.80 in 6.2 mi WNW 5.8 mph - N/A   Mostly Cloudy
1:15 PM 60.8 °F 59.0 °F 94% 29.80 in 2.5 mi WNW 5.8 mph - N/A Rain Rain Showers
1:30 PM 60.8 °F 59.0 °F 94% 29.80 in 5.0 mi WNW 3.5 mph - N/A Rain Light Rain
2:00 PM 60.8 °F 60.8 °F 100% 29.80 in 6.2 mi Variable 2.3 mph - N/A Rain Light Rain
2:12 PM 60.8 °F 60.8 °F 100% 29.77 in 3.7 mi Variable 1.2 mph - N/A Rain Rain
2:30 PM 60.8 °F 60.8 °F 100% 29.77 in 3.7 mi Variable 1.2 mph - N/A Rain Rain
2:39 PM 60.8 °F 60.8 °F 100% 29.77 in 2.5 mi Calm Calm - N/A Rain Rain
3:00 PM 60.8 °F 60.8 °F 100% 29.77 in 6.2 mi West 1.2 mph - N/A Rain Light Rain
3:05 PM 60.8 °F 60.8 °F 100% 29.77 in 1.9 mi WNW 5.8 mph - N/A Rain Rain Showers
3:18 PM 62.6 °F 60.8 °F 94% 29.77 in 6.2 mi South 4.6 mph - N/A Rain Light Rain
3:30 PM 62.6 °F 62.6 °F 100% 29.77 in 6.2 mi SSE 3.5 mph - N/A   Scattered Clouds
4:00 PM 64.4 °F 62.6 °F 94% 29.77 in 6.2 mi SSE 5.8 mph - N/A   Scattered Clouds
4:30 PM 64.4 °F 60.8 °F 88% 29.74 in 6.2 mi SE 4.6 mph - N/A   Scattered Clouds
5:01 PM 62.6 °F 60.8 °F 94% 29.77 in 1.2 mi East 9.2 mph - N/A Rain Rain Showers
5:09 PM 62.6 °F 60.8 °F 94% 29.74 in 6.2 mi East 9.2 mph - N/A Rain Light Rain
5:30 PM 64.4 °F 62.6 °F 94% 29.74 in 6.2 mi East 11.5 mph - N/A   Mostly Cloudy
6:00 PM 62.6 °F 60.8 °F 94% 29.74 in 6.2 mi East 12.7 mph - N/A   Mostly Cloudy
6:30 PM 62.6 °F 62.6 °F 100% 29.74 in 6.2 mi ESE 6.9 mph - N/A   Mostly Cloudy
7:00 PM 62.6 °F 60.8 °F 94% 29.77 in 6.2 mi East 8.1 mph - N/A   Mostly Cloudy
7:30 PM 62.6 °F 60.8 °F 94% 29.77 in 6.2 mi ENE 10.4 mph - N/A   Mostly Cloudy
8:00 PM 63 °F 60 °F 88% 29.76 in 12 mi East 10.4 mph - - Rain Light Rain
8:00 PM 62.6 °F 60.8 °F 94% 29.74 in 6.2 mi East 10.4 mph - N/A Rain Rain
8:30 PM 62.6 °F 60.8 °F 94% 29.74 in 6.2 mi East 12.7 mph - N/A   Mostly Cloudy
9:00 PM 62.6 °F 60.8 °F 94% 29.77 in 6.2 mi West 15.0 mph 28.8 mph N/A   Mostly Cloudy
9:30 PM 64.4 °F 60.8 °F 88% 29.77 in 6.2 mi Variable 2.3 mph - N/A   Mostly Cloudy
9:49 PM 62.6 °F 60.8 °F 94% 29.74 in 6.2 mi ESE 5.8 mph - N/A Rain Rain Showers
9:54 PM 62.6 °F 60.8 °F 94% 29.74 in 4.3 mi SE 6.9 mph - N/A Rain Heavy Rain Showers
10:00 PM 62.6 °F 60.8 °F 94% 29.74 in 6.2 mi ESE 4.6 mph - N/A Rain Rain Showers
10:11 PM 62.6 °F 62.6 °F 100% 29.74 in 6.2 mi East 3.5 mph - N/A Thunderstorm Thunderstorm
10:25 PM 62.6 °F 62.6 °F 100% 29.77 in 6.2 mi Variable 1.2 mph - N/A Rain , Thunderstorm Thunderstorms and Rain
10:30 PM 62.6 °F 62.6 °F 100% 29.77 in 2.5 mi Variable 1.2 mph - N/A Rain Heavy Rain Showers
10:36 PM 62.6 °F 62.6 °F 100% 29.77 in 1.6 mi East 3.5 mph - N/A Rain Heavy Rain Showers
10:45 PM 62.6 °F 62.6 °F 100% 29.74 in 2.2 mi East 6.9 mph - N/A Rain Heavy Rain Showers
10:56 PM 62.6 °F 62.6 °F 100% 29.74 in 6.2 mi SE 8.1 mph - N/A Rain Rain Showers
11:00 PM 62.6 °F 62.6 °F 100% 29.74 in 6.2 mi SE 4.6 mph - N/A Rain Light Rain Showers
11:30 PM 62.6 °F 62.6 °F 100% 29.77 in 6.2 mi SSE 8.1 mph - N/A   Mostly Cloudy
11:44 PM 62.6 °F 62.6 °F 100% 29.77 in 3.1 mi SE 4.6 mph - N/A Rain Heavy Rain Showers
11:54 PM 62.6 °F 62.6 °F 100% 29.74 in 6.2 mi SSE 3.5 mph - N/A Rain Light Rain Showers